Find Starlink 34937

NORAD ID: 66192 Int'l Des: 2025-243 Owner: SPXS Country: US Constellation: starlink operational
LEOCIRCULAR

当前视图

正在加载3D地球...

About Starlink 34937

Starlink 34937 (NORAD 66192) is a starlink constellation satellite (v2 mini) launched Oct 26, 2025 by SPXS of US. It operates in LEO, CIRCULAR orbit with a mass of 575.00 kg.

即将过境

Passes for default location (London). Set your location on the main map for personalized predictions.

高度历史

Loading altitude history...

两行轨道根数

1 66192U 25243R 26264.24036326 .00012973 00000-0 39425-3 0 9994
2 66192 53.1579 54.0912 0001069 88.7840 271.3285 15.34413714 50633
Epoch: Sep 21, 2026 • Age: 7 hours

当前状态

高度 468.1 km
远地点 / 近地点 N/A
速度 7.64 km/s
星下点 51.57°N, 24.49°W
发射日期 Oct 26, 2025
运行时间 0.9 years
类型 internet

技术详情

分类 Payload
质量 575.00 kg
干质量 530.00 kg
长度 0.30 m
跨度 29.00 m
形状 ? Box + pan
制造商 SPXS
平台类型 Starlink V2MO
阶段状态 In Orbit
所有者/国家 SPXS/US

Most Searched